Regional Weather Roundup
Issued by NWS

Home | Current Version | Previous Version | Graphics & Text | Print | Product List | Glossary Off
Versions: 1 2 3 4 5 6 7 8 9 10 11 12 13 14 15 16 17 18 19 20 21 22 23 24 25 26 27 28 29 30 31 32 33 34 35 36 37 38 39 40 41 42 43 44 45 46 47 48 49 50

000
ASUS43 KMKX 212311
RWRWI

WISCONSIN REGIONAL WEATHER ROUNDUP
NATIONAL WEATHER SERVICE MILWAUKEE/SULLIVAN WI
500 PM CST SUN DEC 21 2014

NOTE: "FAIR" INDICATES FEW OR NO CLOUDS BELOW 12,000 FEET WITH NO
SIGNIFICANT WEATHER AND/OR OBSTRUCTIONS TO VISIBILITY.

WIZ001-002-006>008-014>016-023>028-220000-
NORTHWEST WISCONSIN

CITY           SKY/WX    TMP DP  RH WIND       PRES   REMARKS
SUPERIOR ARPT  CLOUDY    32  32  99 CALM      29.77F FOG
ASHLAND        LGT SNOW  33  32  96 CALM      29.82S FOG
HAYWARD        LGT SNOW  33  31  92 S8        29.78S FOG     WCI  26
SIREN          LGT RAIN  34  33  96 S9        29.76S WCI  26
CUMBERLAND     LGT SNOW  32  32 100 SE8       29.77F WCI  25
RICE LAKE      LGT SNOW  33  32  97 SE8       29.80S WCI  26
CHETEK         MIX PCPN  33  32  98 SE8       29.79F WCI  26
LADYSMITH      LGT SNOW  34  33  96 SE9       29.83S WCI  27
EAU CLAIRE     CLOUDY    37  34  89 S13       29.81R WCI  29
MENOMONIE      CLOUDY    36  36  99 SE8       29.80S FOG     WCI  30
NEW RICHMOND   RAIN      34  34 100 S9        29.77S WCI  27
OSCEOLA        LGT RAIN  34  34 100 SE7       29.78S WCI  28
$$

WIZ003>005-009-010-017-018-220000-
NORTH CENTRAL WISCONSIN

CITY           SKY/WX    TMP DP  RH WIND       PRES   REMARKS
MANITOWISH WTR LGT SNOW  32  32 100 S9        29.82F WCI  24
ARBOR VITAE    LGT SNOW  34  32  93 S10       29.84S WCI  26
WOODRUFF       LGT SNOW  34  32  93 S10       29.84S WCI  26
RHINELANDER    LGT SNOW  32  30  92 SE10G20   29.87S FOG     WCI  24
EAGLE RIVER    LGT SNOW  32  32 100 S10G16    29.86S WCI  24
LAND O LAKES   LGT SNOW  32  32  99 S10       29.86F WCI  24
PHILLIPS       LGT SNOW  32  32  99 S10       29.81F WCI  24
TOMAHAWK       LGT RAIN  32  31  96 CALM      29.87S
MEDFORD        LGT RAIN  32  32 100 SE14G20   29.84F WCI  22
MERRILL        LGT SNOW  33  33 100 S8        29.88S WCI  25
$$

WIZ029-030-035-036-043>047-220000-
CENTRAL WISCONSIN

CITY           SKY/WX    TMP DP  RH WIND       PRES   REMARKS
WAUSAU         CLOUDY    33  32  96 S14       29.89S FOG     WCI  23
MOSINEE        CLOUDY    34  34 100 SE13G18   29.91S FOG     WCI  25
MARSHFIELD     CLOUDY    34  32  92 S13       29.87F FOG     WCI  25
STEVENS POINT  CLOUDY    32  31  96 S10       29.93S FOG     WCI  24
WAUPACA        CLOUDY    36  33  87 SE8       29.96F FOG     WCI  30
WAUTOMA        CLOUDY    35  35 100 SE9       29.96S FOG     WCI  28
WISC RAPIDS    CLOUDY    34  31  88 SE8       29.93S FOG     WCI  27
CAMP DOUGLAS   CLOUDY    36  36 100 SE7       29.90S WCI  30
$$

WIZ011>013-019>022-031-037>040-048>050-220000-
NORTHEAST WISCONSIN

CITY           SKY/WX    TMP DP  RH WIND       PRES   REMARKS
ANTIGO         LGT SNOW  31  31 100 S10       29.91S WCI  22
SHAWANO        CLOUDY    36  32  85 S5        29.98S FOG     WCI  32
OCONTO         CLOUDY    34  33  94 S5        30.01S WCI  30
STURGEON BAY   CLOUDY    37  32  81 S18G24    30.03S WCI  27
GREEN BAY      CLOUDY    36  32  85 S14       30.00F WCI  27
MANITOWOC      CLOUDY    36  34  92 S14       30.03F WCI  27
APPLETON       CLOUDY    34  34 100 S14       29.99S FOG     WCI  24
CLINTONVILLE   CLOUDY    34  32  93 S8        29.97F WCI  27
OSHKOSH        CLOUDY    35  31  85 S10       29.99R WCI  27
$$

WIZ032>034-041-042-053>061-220000-
SOUTHWEST WISCONSIN

CITY           SKY/WX    TMP DP  RH WIND       PRES   REMARKS
LA CROSSE      CLOUDY    39  35  86 S15G22    29.86S FOG     WCI  31
SPARTA         CLOUDY    37  35  93 S9        29.90S WCI  30
VIROQUA        CLOUDY    35  35 100 S14G20    29.87S WCI  26
BOSCOBEL       CLOUDY    39  34  82 S8        29.93R WCI  33
PRAIRIE DU CHI CLOUDY    39  33  81 SE5       29.90S
PLATTEVILLE    CLOUDY    36  34  90 SE14      29.94S WCI  27
$$

WIZ056-057-062-063-064-067-068-220000-
SOUTH CENTRAL WISCONSIN

CITY           SKY/WX    TMP DP  RH WIND       PRES   REMARKS
REEDSBURG      CLOUDY    35  33  92 S10       29.93S WCI  28
BARABOO/DELLS  CLOUDY    35  33  92 S13G18    29.93S FOG     WCI  26
LONE ROCK      CLOUDY    41  33  73 SE8       29.95S
MINERAL POINT  CLOUDY    36  34  93 S15       29.93S WCI  26
MADISON        CLOUDY    36  31  82 S16       29.98R WCI  26
MIDDLETON      CLOUDY    37  33  84 S10       29.97S WCI  30
WATERTOWN      CLOUDY    35  32  90 SE10      30.00S WCI  27
MONROE         CLOUDY    34  32  93 SE14      29.97S WCI  24
JANESVILLE     CLOUDY    37  32  81 S12G17    30.01S WCI  30
$$

WIZ051-052-058>065-066-070>072-220000-
SOUTHEAST WISCONSIN

CITY           SKY/WX    TMP DP  RH WIND       PRES   REMARKS
MILWAUKEE      CLOUDY    36  29  75 S13       30.06S WCI  27
WAUKESHA       NOT AVBL
MILWAUKEE/TIMM CLOUDY    36  28  75 SE10      30.05F WCI  28
RACINE         CLOUDY    36  30  79 S12       30.08S WCI  28
BURLINGTON     CLOUDY    34  29  83 SE8       30.04S WCI  27
KENOSHA        CLOUDY    36  29  75 S10       30.07R WCI  28
FOND DU LAC    CLOUDY    35  30  82 S13       29.99S WCI  26
SHEBOYGAN      CLOUDY    35  30  82 S13       30.03S WCI  26
WEST BEND      CLOUDY    34  30  86 SE6       30.02S WCI  29
JUNEAU         CLOUDY    34  31  88 SE15      30.00S WCI  24
$$

LSZ147-162-220000-
LAKE SUPERIOR

STATION/POSITION TIME  TEMP    WIND        PRES    WAVE
                       AIR SEA DIR/SP/G            HT/PER
                 (UTC) (F)     (DEG/KT/KT) (MB)    (FT/S)
DEVILS ISLAND    2300   33     150/  8/ 11 1010.6F
PORT WING        2200   33     110/  1/  2 1009.5
SAXON HARBOR     2240   36      CALM  /  9 1009.8F
$$

LMZ867-665-643>646-220000-
LAKE MICHIGAN

STATION/POSITION TIME  TEMP    WIND        PRES    WAVE
                       AIR SEA DIR/SP/G            HT/PER
                 (UTC) (F)     (DEG/KT/KT) (MB)    (FT/S)
CHAMBERS ISLAND  2200   37     150/  7/ 15 1016.6S
NORTHPORT PIER   2200   38     160/ 10/ 15 1017.3S
SISTER BAY       2213          180/ 15/ 20   N/A
ALGOMA LAKESHORE 2214          220/ 22/ 25   N/A
KEWAUNEE LAKESHO 2200   37     190/ 15/ 19 1016.1F
SHEBOYGAN LAKESH 2300   37 38  180/ 25/ 26 1017.7F
PORT WASHINGTON  2240   37     180/ 12/ 18 1018.3F
MILWAUKEE LAKESH 2200   37     180/ 11/ 13   N/A
KENOSHA   LAKESH 2300   36     180/ 13/ 16 1018.3S
$$

TC  - TEMPERATURE IN CELSIUS
VSB - VISIBILITY IN STATUTE MILES
WCI - WIND CHILL INDEX
HX  - HEAT INDEX



USA.gov is the U.S. government's official web portal to all federal, state and local government web resources and services.